[[{"header":{"parameterUnit":"m.s-1","parameterCategory":1,"la1":30.2991,"la2":30.254,"lo1":-89.0895,"lo2":-89.0444,"dy":0.0017,"dx":0.0017,"nx":28,"ny":28,"refTime":"2024-02-17T03:00:00:Z","depth":0,"parameterNumber":2,"parameterNumberName":"U-component_of_WINDS"},"data":[0,0,0,0,0,0,0,0,0,0,0,0,0,0,0,0,0,0,0,0,0,0,0,0,0,0,0,0,0,0,0,0,0,0,0,0,0,0,0,0,0,0,0,0,0,0,0,0,0,0,0,0,0,0,0,0,0,0,1.0182,1.0183,0,1.0215,1.0215,1.0216,1.0228,1.0228,1.0228,1.0228,1.026,1.0261,1.0262,0,0,0,0,0,0,0,0,0,0,0,0,0,1.013,1.0131,1.0182,1.0183,1.0183,1.0215,1.0215,1.0216,1.0228,1.0228,1.0228,1.0228,1.026,1.0261,1.0262,0,0,0,0,0,0,0,0,0,0,0,0,0,1.0157,1.0131,1.0182,1.0193,1.0195,1.0215,1.0215,1.0216,1.0228,1.0228,1.0228,1.0228,1.026,1.0261,1.0262,1.0274,0,0,1.0267,1.0267,0,0,0,0,0,0,0,0,1.0155,1.0159,1.0191,1.0193,1.0194,1.0217,1.0209,1.0235,1.0228,1.0215,1.0228,1.0228,1.0246,1.0249,1.0255,1.0276,1.0277,1.0267,1.0268,1.0268,1.0269,0,0,0,0,0,0,0,1.0153,1.0157,1.0195,1.0192,1.0193,1.0196,1.02,1.0214,1.0231,1.0216,1.0217,1.0221,1.0247,1.0254,1.0256,1.0277,1.0267,1.0268,1.0269,1.027,1.0309,1.031,0,0,0,0,0,0,1.015,1.0156,1.0194,1.0196,1.0174,1.0197,1.0201,1.021,1.0231,1.0234,1.0221,1.0222,1.0251,1.0254,1.0257,1.0272,1.0268,1.027,1.0271,1.0309,1.031,1.031,0,0,0,0,0,0,1.0149,1.0153,1.0193,1.0176,1.0182,1.0198,1.0208,1.0211,1.0218,1.0235,1.0238,1.0225,1.0251,1.0255,1.027,1.0273,1.027,1.0272,1.0309,1.0309,1.031,1.0302,0,0,0,0,0,0,1.0147,1.0153,1.0157,1.0176,1.0182,1.0205,1.0208,1.0211,1.022,1.0221,1.0239,1.0242,1.0251,1.0268,1.0271,1.0275,1.0273,1.0309,1.0309,1.031,1.0302,1.0303,1.0303,0,0,0,0,0,1.0145,1.0154,1.0158,1.0162,1.0189,1.0206,1.0209,1.022,1.022,1.0225,1.0236,1.0241,1.0273,1.0269,1.0273,1.0278,1.0309,1.0309,1.0309,1.0302,1.0302,1.0303,0,0,0,0,0,0,1.0134,1.0157,1.0161,1.0176,1.0189,1.0208,1.0214,1.022,1.0232,1.0233,1.0246,1.025,1.0263,1.0272,1.0268,1.029,1.0291,1.0292,1.0284,1.0284,1.0284,1.0282,1.0274,0,0,0,0,0,1.0134,1.0146,1.0164,1.0176,1.0182,1.0197,1.0205,1.0212,1.0226,1.0231,1.0243,1.0256,1.0269,1.0277,1.029,1.0304,1.0308,1.0309,1.0309,1.0309,1.031,1.0318,1.0319,1.0311,1.0311,1.0311,0,0,1.0133,1.0146,1.0153,1.0174,1.0185,1.0197,1.0201,1.0214,1.0223,1.0233,1.0248,1.0257,1.0273,1.0287,1.0294,1.0295,1.0313,1.031,1.031,1.0311,1.0319,1.032,1.032,1.0312,1.0312,1.0311,0,0,1.0137,1.0148,1.0159,1.017,1.0187,1.0196,1.0199,1.0217,1.0224,1.0239,1.0247,1.0258,1.028,1.029,1.0298,1.0307,1.0312,1.0311,1.0311,1.0319,1.0319,1.032,1.0323,1.0324,1.0312,1.0312,1.0312,0,1.0133,1.0152,1.0164,1.0176,1.0185,1.0195,1.0207,1.0216,1.0236,1.0242,1.0243,1.027,1.0281,1.0299,1.0301,1.0307,1.031,1.0309,1.0318,1.0319,1.032,1.0323,1.0324,1.0311,1.0311,1.0311,1.0311,0,1.0146,1.0159,1.0166,1.0185,1.0195,1.0207,1.0221,1.0229,1.0236,1.0245,1.0261,1.0275,1.029,1.0295,1.0301,1.0313,1.0313,1.0316,1.0317,1.032,1.0323,1.0324,1.0311,1.0311,1.0311,1.0311,0,0,1.0144,1.017,1.0173,1.0182,1.0201,1.0211,1.0223,1.0239,1.0246,1.0259,1.027,1.0288,1.0291,1.03,1.0308,1.0315,1.0321,1.0317,1.0317,1.0317,1.0335,1.0333,1.0334,1.0325,1.0325,1.0325,1.0334,0,1.0151,1.0173,1.0185,1.0202,1.0214,1.0224,1.0235,1.0248,1.0257,1.0269,1.0279,1.0292,1.0294,1.03,1.0308,1.0319,1.0325,1.0318,1.0334,1.0335,1.033,1.0335,1.0333,1.034,1.0335,1.0335,1.0335,0,1.0161,1.0175,1.0194,1.0212,1.0218,1.0227,1.0242,1.0253,1.0268,1.0274,1.0285,1.0293,1.0306,1.0306,1.0324,1.0319,1.0327,1.0333,1.0334,1.0335,1.0335,1.0337,1.0343,1.0344,1.0337,1.0337,1.0337,0,1.0158,1.0181,1.0195,1.0203,1.0224,1.0231,1.024,1.0255,1.0263,1.0277,1.0283,1.0297,1.0305,1.0317,1.0328,1.0327,1.0345,1.0346,1.0351,1.035,1.0354,1.0353,1.0361,1.0359,1.0359,1.0359,1.0358,0,1.0164,1.0175,1.0194,1.0203,1.0216,1.0229,1.0241,1.0251,1.0264,1.0275,1.0284,1.0294,1.0309,1.032,1.0329,1.0343,1.0346,1.0352,1.0354,1.0351,1.035,1.0356,1.0356,1.0359,1.0359,1.0359,1.0359,0,1.0162,1.0175,1.0192,1.0211,1.0216,1.0225,1.0241,1.025,1.026,1.0274,1.0277,1.0293,1.0307,1.032,1.0339,1.0345,1.0359,1.0362,1.0354,1.0355,1.0359,1.0358,1.037,1.0372,1.0369,1.0369,1.0369,0,1.0165,1.0174,1.0194,1.0203,1.0212,1.0225,1.0234,1.0247,1.0256,1.0274,1.0281,1.0296,1.0308,1.0331,1.0344,1.0358,1.0361,1.0364,1.0363,1.036,1.0361,1.0361,1.0362,1.0364,1.0364,1.0364,1.0364,0,1.0169,1.0175,1.0189,1.0204,1.0215,1.0228,1.0241,1.0247,1.0262,1.0272,1.0287,1.0297,1.0316,1.0331,1.0347,1.0356,1.0363,1.0364,1.0366,1.0363,1.0358,1.0361,1.0354,1.0364,1.0364,1.0364,1.0364,1.0364,1.017,1.0178,1.0194,1.0209,1.022,1.0232,1.0241,1.0253,1.0266,1.0283,1.029,1.0305,1.0319,1.0342,1.0351,1.0363,1.0364,1.0367,1.0367,1.0368,1.0367,1.0356,1.0366,1.0366,1.0366,1.0366,1.0366,0,1.0174,1.0185,1.0198,1.0217,1.0228,1.0233,1.0248,1.0257,1.0271,1.0284,1.0296,1.0314,1.0328,1.0342,1.0357,1.0364,1.0368,1.0368,1.0367,1.0369,1.0365,1.0362,1.0365,1.0365,1.0365,1.0365,1.0365,1.0365,1.0178,1.0193,1.0201,1.0221,1.0232,1.0247,1.0255,1.0266,1.0277,1.0296,1.0308,1.0318,1.0331,1.0348,1.0361,1.0365,1.037,1.0369,1.0374,1.037,1.037,1.037,1.0367,1.037,1.037,1.0377,1.0377,1.0377]},{"header":{"parameterUnit":"m.s-1","parameterCategory":1,"la1":30.2991,"la2":30.254,"lo1":-89.0895,"lo2":-89.0444,"dy":0.0017,"dx":0.0017,"nx":28,"ny":28,"refTime":"2024-02-17T03:00:00:Z","depth":0,"parameterNumber":3,"parameterNumberName":"V-component_of_WINDS"},"data":[0,0,0,0,0,0,0,0,0,0,0,0,0,0,0,0,0,0,0,0,0,0,0,0,0,0,0,0,0,0,0,0,0,0,0,0,0,0,0,0,0,0,0,0,0,0,0,0,0,0,0,0,0,0,0,0,0,0,0.4417,0.4417,0,0.448,0.4481,0.4482,0.4491,0.449,0.449,0.4489,0.4555,0.4557,0.456,0,0,0,0,0,0,0,0,0,0,0,0,0,0.4303,0.4305,0.4417,0.4417,0.4418,0.448,0.4481,0.4482,0.4491,0.449,0.4489,0.4489,0.4554,0.4557,0.456,0,0,0,0,0,0,0,0,0,0,0,0,0,0.4358,0.4306,0.4416,0.443,0.4432,0.448,0.4481,0.4482,0.4491,0.449,0.4489,0.4488,0.4554,0.4557,0.456,0.46,0,0,0.4571,0.4572,0,0,0,0,0,0,0,0,0.4355,0.4362,0.4427,0.4429,0.4431,0.4477,0.4465,0.4522,0.4491,0.4469,0.4489,0.4488,0.453,0.4535,0.4549,0.4603,0.4606,0.4571,0.4573,0.4575,0.4576,0,0,0,0,0,0,0,0.4351,0.436,0.4442,0.4428,0.4431,0.4433,0.444,0.4476,0.4503,0.447,0.4471,0.4479,0.4531,0.4546,0.4551,0.4607,0.4571,0.4574,0.4576,0.4578,0.4696,0.4697,0,0,0,0,0,0,0.4345,0.4356,0.444,0.4444,0.439,0.4436,0.4444,0.4463,0.4503,0.4508,0.4479,0.4479,0.454,0.4547,0.4553,0.4603,0.4575,0.4578,0.458,0.4695,0.4697,0.4698,0,0,0,0,0,0,0.4342,0.4352,0.4437,0.44,0.4411,0.4439,0.4461,0.4465,0.448,0.451,0.4515,0.449,0.454,0.4548,0.4588,0.4605,0.458,0.4583,0.4694,0.4696,0.4697,0.4702,0,0,0,0,0,0,0.4339,0.4351,0.4366,0.4401,0.4413,0.4471,0.4462,0.4467,0.4486,0.4486,0.4521,0.4526,0.454,0.4583,0.4592,0.4609,0.4586,0.4693,0.4695,0.4697,0.47,0.4703,0.4706,0,0,0,0,0,0.4335,0.4365,0.4367,0.4377,0.4433,0.4472,0.4479,0.4495,0.4487,0.4503,0.4522,0.4525,0.4601,0.4587,0.4597,0.4616,0.4692,0.4694,0.4697,0.4699,0.4703,0.4706,0,0,0,0,0,0,0.4332,0.437,0.4372,0.4414,0.444,0.4473,0.4494,0.4498,0.4526,0.4525,0.4543,0.4551,0.459,0.4607,0.459,0.4656,0.4646,0.465,0.4644,0.4648,0.4651,0.4647,0.4588,0,0,0,0,0,0.4337,0.4365,0.4396,0.443,0.4443,0.4466,0.4484,0.4493,0.452,0.4531,0.4553,0.458,0.461,0.463,0.4659,0.4702,0.471,0.472,0.4723,0.4725,0.4729,0.4754,0.4759,0.4706,0.4706,0.4706,0,0,0.4346,0.437,0.4387,0.443,0.4451,0.4481,0.4475,0.4506,0.4529,0.4536,0.4576,0.4592,0.4623,0.4665,0.4685,0.468,0.4746,0.4728,0.473,0.4733,0.4757,0.4762,0.4767,0.4707,0.4707,0.4707,0,0,0.4378,0.4398,0.443,0.445,0.4482,0.4497,0.4504,0.4537,0.4549,0.4588,0.4595,0.4622,0.4673,0.4695,0.4713,0.4753,0.4757,0.4762,0.4778,0.4802,0.4806,0.481,0.4825,0.4831,0.4766,0.4766,0.4766,0,0.4386,0.443,0.4445,0.4476,0.4496,0.4503,0.4535,0.4555,0.4594,0.4608,0.4602,0.4667,0.4688,0.4736,0.4746,0.4759,0.4769,0.4759,0.4804,0.4808,0.4812,0.4827,0.4833,0.4766,0.4766,0.4766,0.4766,0,0.4439,0.4469,0.4491,0.4529,0.455,0.4582,0.4602,0.4622,0.4629,0.4645,0.4685,0.4711,0.4746,0.4758,0.4765,0.4806,0.4803,0.48,0.479,0.4817,0.4832,0.4838,0.4767,0.4767,0.4767,0.4767,0,0,0.4472,0.4518,0.4525,0.4543,0.4578,0.4603,0.4634,0.4668,0.4686,0.4712,0.474,0.4783,0.4781,0.4802,0.4812,0.4832,0.4864,0.4828,0.4829,0.4835,0.4913,0.4915,0.4922,0.4866,0.4867,0.4868,0.491,0,0.451,0.4567,0.4581,0.463,0.4659,0.4666,0.4694,0.4719,0.4734,0.4761,0.4778,0.4809,0.4803,0.4816,0.4836,0.4856,0.488,0.4853,0.4893,0.4895,0.4887,0.4929,0.4932,0.4971,0.4916,0.4917,0.4918,0,0.4561,0.4589,0.4641,0.4673,0.4685,0.471,0.4743,0.4768,0.4797,0.4806,0.4829,0.4837,0.4871,0.4858,0.4906,0.4887,0.4904,0.4916,0.4918,0.4923,0.4909,0.4937,0.4983,0.4989,0.4926,0.4926,0.4925,0,0.4582,0.4632,0.467,0.4685,0.4723,0.474,0.4757,0.4784,0.4804,0.4832,0.4845,0.4877,0.4895,0.492,0.4936,0.4925,0.4983,0.4971,0.4993,0.4992,0.5006,0.5005,0.5057,0.5014,0.5014,0.5014,0.5014,0,0.4623,0.4655,0.468,0.4704,0.474,0.4755,0.479,0.4807,0.4831,0.4859,0.4866,0.4892,0.4911,0.4939,0.4952,0.499,0.4998,0.5007,0.5011,0.5008,0.5007,0.502,0.5019,0.5016,0.5015,0.5015,0.5015,0,0.4653,0.4671,0.4713,0.4745,0.4754,0.4779,0.4807,0.483,0.4845,0.488,0.4889,0.4913,0.4946,0.4965,0.5007,0.5016,0.5059,0.506,0.5049,0.5051,0.5072,0.507,0.5136,0.5145,0.5095,0.5096,0.5096,0,0.4679,0.4704,0.4739,0.4757,0.4774,0.4804,0.4824,0.484,0.4861,0.4895,0.4914,0.4948,0.4976,0.5029,0.5051,0.5084,0.5087,0.5107,0.5092,0.5088,0.5089,0.5088,0.5091,0.511,0.5111,0.5111,0.5111,0,0.4724,0.4731,0.476,0.4792,0.4816,0.4842,0.4867,0.4882,0.4902,0.4925,0.496,0.4981,0.5024,0.5058,0.5092,0.511,0.5115,0.5116,0.5123,0.5121,0.5114,0.5119,0.5058,0.5115,0.5114,0.5114,0.5114,0.5114,0.4754,0.4776,0.4804,0.4836,0.4857,0.4881,0.4904,0.4922,0.4951,0.4987,0.4995,0.5031,0.5059,0.5105,0.5124,0.5153,0.5149,0.5159,0.5162,0.5164,0.5166,0.5108,0.5159,0.5159,0.5159,0.5159,0.5159,0,0.48,0.4818,0.4847,0.4883,0.4908,0.4909,0.4937,0.4958,0.499,0.5016,0.5043,0.5083,0.5116,0.514,0.5174,0.5192,0.5195,0.5201,0.52,0.5205,0.5167,0.5158,0.5198,0.5198,0.5198,0.5198,0.5198,0.5198,0.4827,0.4865,0.4876,0.4925,0.4943,0.4979,0.4995,0.5018,0.5038,0.5082,0.5109,0.5124,0.515,0.5185,0.5216,0.5222,0.5235,0.524,0.5247,0.5211,0.5207,0.5203,0.5195,0.5242,0.5242,0.5283,0.5283,0.5283]}]]